Simultaneous Nadir Overpasses (SNOs) Predictions

Prediction of SNOs between GOES-16 and NPP Satellite Orbit:

Table of predicted SNOs for the next 14.0 days since TLE Epoch: 1/23/2022
Index Date Time (GOES-16) GOES-16 Lat,Lon NPP Lat,Lon Distance(km) Time Diff (sec)
1 01/23/2022 18:23:26 0.06, -75.20 0.30, -74.22 112.72 80
2 01/25/2022 06:45:12 -0.06, -75.20 0.88, -79.48 486.71 80
3 01/26/2022 06:23:45 -0.05, -75.21 -0.11, -74.93 31.06 80
4 01/28/2022 18:26:53 0.04, -75.23 -0.06, -75.69 52.57 80
5 01/29/2022 18:10:46 0.04, -75.24 0.94, -71.15 465.51 80
6 01/31/2022 06:32:32 -0.04, -75.25 0.24, -76.41 133.26 80
7 02/01/2022 06:11:06 -0.04, -75.26 -0.82, -71.89 385.01 80
8 02/02/2022 18:33:00 0.04, -75.29 -0.40, -77.17 215.48 80
9 02/03/2022 18:16:54 0.04, -75.31 0.66, -72.65 303.64 80
10 02/05/2022 06:38:39 -0.03, -75.33 0.52, -77.91 292.98 80
